Home   Weather   Detmold   Past weeks

Flag for Germany Past Weather in Detmold, North Rhine-Westphalia, Germany — Yesterday and Last 2 Weeks

Now
64 °F

Scattered clouds.


Feels Like: 64 °F
Forecast: 46 / 74 °F
Wind: 2 mph from North

Location: Paderborn / Lippstadt

Current Time: May 25, 2017 at 8:29:35 pm

Latest Report: May 25, 2017 at 7:50 pm


Visibility: N/A

Pressure: 30.21 "Hg

Humidity: 64%

Dew Point: 52 °F

Location of DetmoldLocation

Past Weather in Detmold — Graph

°F

Detmold Temperature Yesterday

Maximum temperature yesterday: 63 °F (at 1:50 pm)
Minimum temperature yesterday: 48 °F (at 1:50 am)
Average temperature yesterday: 56 °F

High & Low Weather Summary for the Past Weeks

 TemperatureHumidityPressure
High81 °F (May 17, 2:50 pm)100% (May 19, 4:50 pm)30.42 "Hg (May 19, 4:50 pm)
Low41 °F (May 11, 2:20 am)35% (May 11, 2:50 pm)29.47 "Hg (May 11, 6:20 pm)
Average61 °F65%30.04 "Hg
* Reported May 10 7:20 pm — May 25 7:20 pm, Detmold. Weather by CustomWeather, © 2017

Note: Actual official high and low records may vary slightly from our data, if they occured in-between our weather recording intervals... More about our weather records

Advertising

Detmold Weather History for the Previous 24 Hours

Scroll right to see more
 ConditionsComfort  
Time TempWeatherWind HumidityBarometerVisibility
7:20 pm
Thu, May 25
66 °FScattered clouds.6 mph56%30.21 "HgN/A
6:50 pm66 °FPassing clouds.5 mph56%30.21 "HgN/A
6:20 pm66 °FPassing clouds.6 mph56%30.21 "HgN/A
5:50 pm66 °FPassing clouds.5 mph56%30.21 "HgN/A
5:20 pm66 °FPassing clouds.7 mph52%30.24 "HgN/A
4:50 pm68 °FPassing clouds.8 mph53%30.21 "HgN/A
4:20 pm66 °FPassing clouds.8 mph56%30.21 "HgN/A
3:50 pm66 °FPassing clouds.7 mph52%30.24 "HgN/A
3:20 pm68 °FPassing clouds.8 mph53%30.24 "HgN/A
2:50 pm64 °FPassing clouds.7 mph52%30.24 "HgN/A
2:20 pm64 °FScattered clouds.7 mph56%30.24 "HgN/A
1:50 pm64 °FScattered clouds.7 mph60%30.24 "HgN/A
1:20 pm63 °FScattered clouds.7 mph59%30.24 "HgN/A
12:50 pm59 °FScattered clouds.7 mph68%30.27 "HgN/A
12:20 pm59 °FScattered clouds.6 mph68%30.27 "HgN/A
11:50 am55 °FBroken clouds.6 mph77%30.27 "HgN/A
11:20 am55 °FBroken clouds.7 mph82%30.27 "HgN/A
10:20 am54 °FFog.6 mph88%30.27 "Hg3 mi
9:50 am54 °FFog.5 mph94%30.24 "Hg2 mi
9:20 am52 °FFog.3 mph100%30.24 "Hg1 mi
8:50 am52 °FFog.5 mph94%30.24 "Hg1 mi
8:20 am52 °FFog.5 mph100%30.24 "Hg1 mi
7:50 am52 °FFog.5 mph94%30.24 "Hg2 mi
7:20 am52 °FFog.3 mph94%30.24 "Hg2 mi
6:50 am52 °FFog.5 mph94%30.24 "Hg2 mi
6:20 am52 °FBroken clouds.5 mph94%30.21 "Hg4 mi
5:50 am54 °FPartly sunny.3 mph88%30.21 "HgN/A
5:20 am52 °FScattered clouds.3 mph94%30.21 "HgN/A
4:50 am52 °FPassing clouds.2 mph94%30.21 "HgN/A
4:20 am52 °FPassing clouds.3 mph88%30.21 "HgN/A
3:50 am54 °FPassing clouds.3 mph88%30.21 "HgN/A
3:20 am54 °FPassing clouds.3 mph88%30.21 "HgN/A
2:50 am54 °FPassing clouds.2 mph88%30.21 "HgN/A
2:20 am54 °FPassing clouds.2 mph88%30.21 "HgN/A
1:50 am54 °FPassing clouds.1 mph88%30.21 "HgN/A
1:20 am54 °FPassing clouds.1 mph88%30.21 "HgN/A
12:50 am54 °FPassing clouds.1 mph88%30.21 "HgN/A
12:20 am54 °FPassing clouds.1 mph88%30.21 "HgN/A
11:50 pm
Wed, May 24
54 °FPassing clouds.2 mph82%30.21 "HgN/A
11:20 pm54 °FPassing clouds.3 mph82%30.21 "HgN/A
10:50 pm55 °FPassing clouds.2 mph77%30.21 "HgN/A
10:20 pm57 °FPassing clouds.2 mph77%30.21 "HgN/A
9:50 pm57 °FPassing clouds.3 mph77%30.18 "HgN/A
9:20 pm57 °FScattered clouds.2 mph77%30.18 "HgN/A
8:50 pm61 °FScattered clouds.1 mph68%30.18 "HgN/A
8:20 pm61 °FScattered clouds.2 mph68%30.18 "HgN/A
Weather by CustomWeather, © 2017

See weather overviewHow to use our weather pages